CW0858 Weather Reports


time (UTC)temp
C
wind
direction
speed
KPH
gust
KPH
rain 1hr
cm
rain 24hr
cm
rain mn
cm
humidity
%
barometer
mb
20260503200031 31 67 1.6 6.4 0.00 0.00 0.00 28 1009.5
20260503194528 30 114 1.6 6.4 0.00 0.00 0.00 29 1009.7
20260503193033 29 19 1.6 6.4 0.00 0.00 0.00 33 1009.9
20260503191527 29 352 1.6 8.0 0.00 0.00 0.00 34 1010.0
20260503190030 28 308 0.0 6.4 0.00 0.00 0.00 37 1010.2
20260503184530 27 129 0.0 6.4 0.00 0.00 0.00 38 1010.3
20260503183044 26 303 0.0 8.0 0.00 0.00 0.00 40 1010.5
20260503181529 26 132 1.6 4.8 0.00 0.00 0.00 42 1010.6
20260503180028 25 305 0.0 4.8 0.00 0.00 0.00 46 1010.7
20260503174527 24 0 0.0 6.4 0.00 0.00 0.00 48 1010.8
20260503173028 23 351 1.6 4.8 0.00 0.00 0.00 50 1011.0
20260503171528 22 130 0.0 3.2 0.00 0.00 0.00 54 1011.1
20260503081534 12 0 0.0 0.0 0.00 0.00 0.00 91 1012.1
20260503071529 13 0 0.0 0.0 0.00 0.00 0.00 88 1012.2
20260503054529 15 0 0.0 0.0 0.00 0.00 0.00 83 1012.1
20260503053028 16 0 0.0 1.6 0.00 0.00 0.00 82 1011.9
20260503051527 16 0 0.0 0.0 0.00 0.00 0.00 80 1012.0
20260503050035 17 105 0.0 1.6 0.00 0.00 0.00 79 1012.3
20260503044531 17 0 0.0 4.8 0.00 0.00 0.00 78 1012.1
20260503043029 16 0 0.0 0.0 0.00 0.00 0.00 79 1011.9
20260503041530 16 0 0.0 1.6 0.00 0.00 0.00 79 1012.1
20260503040035 17 0 0.0 0.0 0.00 0.00 0.00 77 1012.2
20260503034536 17 0 0.0 0.0 0.00 0.00 0.00 76 1012.0
20260503033030 17 0 0.0 1.6 0.00 0.00 0.00 75 1011.8
20260503031528 17 0 0.0 1.6 0.00 0.00 0.00 74 1011.7
20260503030030 18 0 0.0 0.0 0.00 0.00 0.00 73 1011.7
20260503024528 18 282 0.0 6.4 0.00 0.00 0.00 72 1011.8
20260503023030 18 0 0.0 4.8 0.00 0.00 0.00 70 1011.8
20260503021530 19 319 1.6 9.7 0.00 0.00 0.00 70 1011.9
20260503020028 20 122 1.6 11.3 0.00 0.00 0.00 65 1011.7
20260503014539 20 0 0.0 1.6 0.00 0.00 0.00 65 1011.1
20260503013032 21 109 0.0 1.6 0.00 0.00 0.00 63 1011.0
20260503011537 21 0 0.0 0.0 0.00 0.00 0.00 63 1011.0
20260503010029 21 0 0.0 1.6 0.00 0.00 0.00 64 1011.0
20260503004530 21 104 0.0 1.6 0.00 0.00 0.00 65 1010.9
20260503003028 20 0 0.0 0.0 0.00 0.00 0.00 65 1011.0
20260503001528 20 208 0.0 1.6 0.00 0.00 0.00 65 1010.9
20260503000028 20 0 0.0 1.6 0.00 0.00 0.00 65 1011.0
20260502234528 21 0 0.0 4.8 0.00 0.00 0.00 64 1011.0
20260502233036 20 170 0.0 3.2 0.00 0.00 0.00 60 1011.2
20260502231538 20 23 0.0 4.8 0.00 0.00 0.00 59 1011.4
20260502230028 20 0 0.0 1.6 0.00 0.00 0.00 61 1011.5
20260502224531 20 145 0.0 4.8 0.00 0.00 0.00 61 1011.9
20260502223028 20 27 0.0 3.2 0.00 0.00 0.00 61 1012.0
20260502221527 19 300 0.0 3.2 0.00 0.00 0.00 62 1012.4
20260502220037 19 0 0.0 3.2 0.00 0.00 0.00 62 1012.6
20260502214530 18 115 0.0 3.2 0.00 0.00 0.00 64 1012.9
20260502213030 18 294 0.0 4.8 0.00 0.00 0.00 65 1013.0
20260502211540 18 115 0.0 3.2 0.00 0.00 0.00 65 1013.3
20260502210028 17 137 0.0 4.8 0.00 0.00 0.00 66 1013.4
20260502204528 17 120 1.6 4.8 0.00 0.00 0.00 68 1013.7
20260502203030 16 0 0.0 3.2 0.00 0.00 0.00 74 1014.1
20260502201529 15 308 1.6 3.2 0.00 0.00 0.00 72 1014.2